Date,TemperatureHighF,TemperatureAvgF,TemperatureLowF,DewpointHighF,DewpointAvgF,DewpointLowF,HumidityHigh,HumidityAvg,HumidityLow,PressureMaxIn,PressureMinIn,WindSpeedMaxMPH,WindSpeedAvgMPH,GustSpeedMaxMPH,PrecipitationSumIn
2013-1-1,67.3,56.6,47.3,67.0,56.0,45.9,100,98,93,30.03,29.70,20,10,32,0.07
2013-1-2,47.3,42.7,41.0,46.3,42.2,40.7,100,98,94,30.15,30.01,16,9,27,0.09
2013-1-3,49.6,45.3,41.5,42.2,39.5,36.0,97,81,60,30.25,30.13,12,9,21,0.00
2013-1-4,51.1,47.8,43.0,42.9,41.1,38.5,94,78,64,30.31,30.19,12,8,21,0.00
2013-1-5,48.0,46.1,43.7,47.8,45.1,39.4,100,96,76,30.22,30.08,12,8,20,0.02
2013-1-6,59.5,48.6,40.3,49.1,44.9,40.0,99,88,61,30.20,30.10,14,7,22,0.00
2013-1-7,58.1,50.5,41.9,55.6,49.4,41.6,100,96,82,30.15,29.89,17,7,24,0.00
2013-1-8,61.0,57.8,53.6,60.7,57.5,53.3,99,99,99,29.88,29.67,19,8,27,0.57
2013-1-9,69.4,61.3,57.4,69.2,61.0,57.1,99,99,96,29.89,29.65,26,9,36,1.18
2013-1-10,66.2,59.4,54.3,60.5,55.8,52.2,100,89,61,29.97,29.83,10,6,20,0.01
2013-1-11,64.0,60.2,51.3,63.8,60.0,51.0,99,99,99,29.90,29.69,14,6,17,0.00
2013-1-12,70.0,64.8,62.8,65.3,55.8,9.2,100,80,10,29.71,29.48,27,11,39,0.00
2013-1-13,67.6,50.6,43.9,55.9,22.0,-8.6,66,36,10,29.96,29.59,26,14,37,0.06
2013-1-14,48.9,44.3,39.4,32.2,11.5,-12.6,53,29,10,30.04,29.91,18,11,28,0.00
2013-1-15,45.9,41.4,38.7,34.9,17.3,-12.9,72,41,10,30.03,29.88,14,10,27,0.06
2013-1-16,56.7,44.9,35.8,33.1,21.6,-12.3,64,41,10,30.19,30.04,15,8,27,0.07
2013-1-17,65.5,49.6,34.2,41.2,21.7,-16.5,62,37,10,30.31,30.14,11,4,18,0.00
2013-1-18,59.4,51.5,42.1,25.1,0.7,-10.5,43,13,10,30.36,30.19,12,7,17,0.00
2013-1-19,61.9,55.6,48.7,4.8,-0.1,-5.4,10,10,10,30.19,30.03,12,7,16,0.00
2013-1-20,68.7,58.7,49.6,38.7,13.5,-0.4,62,21,10,30.10,29.95,10,5,13,0.00
2013-1-21,70.0,60.4,53.6,37.4,10.2,0.2,52,16,10,30.08,29.96,10,4,12,0.01
2013-1-22,72.9,60.2,51.4,42.7,16.6,0.2,67,24,10,30.16,30.03,12,6,15,0.00
2013-1-23,71.6,63.2,55.4,49.2,27.4,3.6,76,34,10,30.19,30.08,13,7,18,0.01
2013-1-24,75.4,66.3,59.0,57.9,32.6,7.5,93,39,10,30.14,30.00,15,8,24,0.01
2013-1-25,75.4,66.9,59.4,52.4,25.5,7.4,67,29,10,30.03,29.92,17,8,25,0.01
2013-1-26,72.5,68.1,64.8,36.2,14.9,7.5,34,14,10,30.02,29.93,14,9,17,0.00
2013-1-27,70.9,68.5,66.7,42.1,11.9,8.5,38,11,10,29.96,29.85,18,13,23,0.00
2013-1-28,72.7,69.5,67.8,46.4,20.9,9.3,44,17,10,29.93,29.78,19,14,24,0.00
2013-1-29,74.5,70.4,61.7,43.1,20.3,4.6,39,16,10,29.78,29.44,26,19,40,0.04
2013-1-30,66.7,59.1,48.0,43.9,27.7,12.7,54,32,13,30.12,29.61,21,9,40,3.18
2013-1-31,66.6,59.6,50.5,44.6,36.1,2.3,56,44,10,30.17,30.06,13,8,19,0.00
2013-2-1,72.9,62.8,55.9,50.6,20.0,0.2,48,22,10,30.20,30.06,12,7,17,0.00
2013-2-2,70.2,64.6,56.1,21.6,9.7,2.4,23,12,10,30.09,30.01,11,5,14,0.00
2013-2-3,68.0,60.9,53.4,46.3,19.8,-0.9,48,24,10,30.15,29.88,20,10,25,0.00
2013-2-4,72.7,66.6,64.0,46.5,20.5,6.7,50,19,10,29.88,29.67,15,7,20,0.00
2013-2-5,76.3,68.1,63.3,57.4,40.9,12.2,68,44,10,29.82,29.70,13,6,17,0.01
2013-2-6,68.7,66.2,61.2,58.5,31.3,5.2,73,35,10,29.85,29.67,20,11,33,0.47
2013-2-7,72.1,64.9,59.9,12.6,7.1,3.2,10,10,10,29.84,29.73,10,4,14,0.00
2013-2-8,72.0,62.9,54.3,52.3,13.6,-1.1,53,18,10,30.02,29.83,16,10,25,0.00
2013-2-9,67.8,64.1,57.0,25.0,6.9,1.0,20,10,10,29.95,29.67,20,14,25,0.00
2013-2-10,73.4,66.9,63.1,51.3,24.8,5.7,58,26,10,29.78,29.63,19,9,24,0.00
2013-2-11,63.3,59.7,56.1,44.6,14.6,0.3,55,20,10,29.85,29.76,22,12,31,0.00
2013-2-12,67.3,61.2,57.4,38.3,6.1,1.6,46,11,10,29.84,29.65,12,5,21,0.00
2013-2-13,63.1,55.0,46.9,45.6,19.8,-6.7,59,31,10,30.00,29.83,15,8,25,0.00
2013-2-14,62.8,56.5,45.3,46.0,29.2,-8.0,58,40,10,30.01,29.90,16,9,21,0.00
2013-2-15,69.6,60.6,51.4,51.6,32.6,-3.3,62,41,10,30.17,29.93,18,8,31,0.00
2013-2-16,68.9,53.7,39.9,45.4,35.3,-0.9,68,52,10,30.31,30.12,19,7,28,0.00
2013-2-17,69.3,61.5,52.3,49.9,26.8,-2.6,56,31,10,30.12,29.87,20,11,27,0.00
2013-2-18,73.0,67.2,64.2,31.6,14.5,6.5,25,13,10,29.88,29.71,22,13,32,0.00
2013-2-19,69.4,61.5,54.9,53.8,44.5,6.7,67,55,10,30.06,29.88,22,14,28,0.00
2013-2-20,66.6,63.6,57.2,35.5,10.1,1.2,37,13,10,29.91,29.56,24,16,33,0.00
2013-2-21,80.2,67.6,63.9,49.4,22.4,7.2,52,23,10,29.67,29.47,20,11,25,0.01
2013-2-22,68.2,62.8,57.6,50.9,39.3,4.2,56,45,10,29.80,29.65,15,9,25,0.00
2013-2-23,69.8,59.7,50.5,51.1,35.5,0.7,55,43,10,29.86,29.73,16,7,26,0.00
2013-2-24,65.8,60.1,50.9,44.2,8.7,-2.9,46,14,10,29.76,29.46,19,11,26,0.01
2013-2-25,75.7,64.7,51.3,48.5,21.6,5.2,50,22,10,29.70,29.38,29,12,44,5.91
2013-2-26,70.3,57.2,44.1,44.1,28.9,1.9,63,39,10,29.81,29.69,11,6,20,0.00
2013-2-27,75.6,61.7,45.7,56.3,37.2,1.3,80,44,10,30.04,29.73,16,6,28,0.00
2013-2-28,57.2,48.4,43.2,34.3,31.7,28.0,67,53,36,30.14,30.03,14,8,24,0.00
2013-3-3,69.6,60.1,52.9,41.8,14.1,1.4,64,21,10,30.42,30.33,10,4,11,0.01
2013-3-4,72.3,60.5,51.8,49.2,20.1,0.9,75,28,10,30.49,30.39,12,6,14,0.00
2013-3-5,72.1,64.3,56.3,56.7,29.7,3.9,88,37,10,30.52,30.41,13,6,17,0.01
2013-3-6,75.4,66.5,59.4,56.7,30.9,7.5,91,35,10,30.47,30.30,16,8,21,0.01
2013-3-7,75.2,67.8,63.1,52.3,19.3,7.2,67,19,10,30.37,30.25,18,9,24,0.01
2013-3-8,72.5,68.6,65.7,28.3,12.7,8.5,23,12,10,30.35,30.24,14,10,17,0.00
2013-3-9,71.2,68.7,66.9,62.5,19.4,8.5,83,22,10,30.29,29.87,20,14,27,0.00
2013-3-10,73.0,65.7,55.9,67.1,52.4,43.1,100,63,39,30.25,29.85,23,11,34,0.28
2013-3-11,69.1,55.3,46.4,44.8,36.2,13.0,71,54,12,30.33,30.18,14,7,30,0.00
2013-3-12,69.4,60.8,53.4,52.8,46.6,38.3,68,60,48,30.41,30.26,18,9,22,0.00
2013-3-13,69.3,61.4,50.9,52.9,47.0,40.9,84,60,48,30.60,30.40,20,11,25,0.00
2013-3-14,68.2,64.6,58.3,47.7,42.4,28.7,66,45,23,30.58,30.46,16,10,21,0.00
2013-3-15,71.6,67.4,62.1,48.9,35.7,11.0,60,33,10,30.46,30.24,19,12,27,0.00
2013-3-16,73.0,69.0,64.8,45.5,29.7,10.5,48,26,10,30.24,30.02,21,15,30,0.00